www.pogodaiklimat.ru

Погода и климат >> Архив погоды >> Норвегия >> Бигландсфьорд


ПОГОДА в Бигландсфьорде

  • Прогноз погоды в Бигландсфьорде
  • Монитор погоды в Бигландсфьорде

АРХИВ ПОГОДЫ в Бигландсфьорде

Время (UTC), дата Ветер
(напр.,м/с)
 
Видим.   Явления Облачность Т
(С)
Тd
(С)
f
(%)
Тe
(С)
Тes
(С)
Комфортность P
(гПа)
Po
(гПа)
Тmin
(С)
Tmax
(С)
R
(мм)
R24
(мм)
S
(см)
01 16.08 ЮВ 2
{3}
н/о н/о +14.2 +13.6 96 +14 +14 1005.7 980.9
02 16.08 Ю 1
{3}
н/о н/о +14.3 +13.5 95 +15 +15 1005.6 980.8
03 16.08 Ю 2
{4}
н/о н/о +13.9 +13.3 96 +13 +13 1005.8 981.0
04 16.08 Ю 3
{4}
н/о н/о +13.5 +13.0 97 +12 +12 1006.1 981.2
05 16.08 Ю 3
{5}
н/о н/о +13.1 +12.8 98 +12 +12 1006.4 981.5
06 16.08 Ю 4
{5}
н/о н/о +12.9 +12.6 98 +11 +11 1006.7 981.8 +12.9 +14.4 1
07 16.08 Ю 3
{5}
н/о н/о +13.1 +12.8 98 +12 +12 1007.2 982.3
08 16.08 Ю 2
{5}
н/о н/о +14.1 +13.3 95 +14 +14 1007.5 982.6
09 16.08 ЮВ 2
{4}
н/о н/о +16.0 +13.8 87 +16 +16 1007.2 982.5
10 16.08 Ю 3
{4}
н/о н/о +17.4 +10.8 65 +17 +17 1007.1 982.5
11 16.08 ЮВ 2
{4}
н/о н/о +19.6 +10.9 57 +21 +21 комфорт 1006.9 982.5
12 16.08 Ю 2
{5}
н/о н/о +20.3 +7.7 44 +22 +22 комфорт 1006.7 982.4
13 16.08 ЮЗ 3
{5}
н/о н/о +19.4 +7.2 45 +20 +20 1006.6 982.2
14 16.08 ЮЗ 3
{6}
н/о н/о +19.5 +4.5 37 +20 +20 1006.6 982.2
15 16.08 Ю 5
{8}
н/о н/о +18.6 +7.7 49 +19 +19 1006.7 982.2
16 16.08 Ю 5
{8}
н/о н/о +17.4 +9.1 58 +17 +17 1006.9 982.3
17 16.08 ЮЗ 6
{10}
н/о н/о +15.6 +9.1 65 +14 +14 1007.4 982.7
18 16.08 ЮВ 5
{10}
н/о н/о +15.1 +8.6 65 +14 +14 1007.1 982.3 +12.8 +21.2
19 16.08 ЮВ 5
{10}
н/о н/о +14.7 +9.7 72 +13 +13 1007.5 982.7
20 16.08 ЮВ 6
{9}
н/о н/о +14.3 +10.9 80 +12 +12 1007.4 982.6 0.1
21 16.08 Ю 4
{8}
н/о н/о +14.2 +11.4 83 +13 +13 1007.0 982.2
22 16.08 ЮВ 4
{6}
н/о н/о +13.5 +11.7 89 +12 +12 1006.5 981.6
23 16.08 Ю 2
{5}
н/о н/о +13.4 +11.8 90 +13 +13 1005.6 980.7
00 17.08 Ю 4
{10}
н/о н/о +13.8 +12.0 89 +12 +12 1004.8 980.0
01 17.08 ЮЗ 2
{10}
н/о н/о +13.6 +11.8 89 +13 +13 1003.8 979.0 0.3
02 17.08 ЮВ 3
{6}
н/о н/о +14.1 +12.0 87 +13 +13 1002.0 977.3 0.9
03 17.08 Ю 3
{12}
н/о н/о +14.2 +12.4 89 +13 +13 1000.7 976.0 2
04 17.08 Ю 6
{19}
н/о н/о +14.4 +13.5 94 +12 +12 999.7 975.1 3
05 17.08 Ю 4
{13}
н/о н/о +14.3 +13.2 93 +13 +13 999.0 974.4 4
06 17.08 Ю 3
{19}
н/о н/о +14.0 +13.2 95 +13 +13 998.1 973.5 +13.2 +15.5 16
07 17.08 Ю 4
{6}
н/о н/о +14.8 +14.0 95 +14 +14 997.5 972.9 3
08 17.08 Ю 3
{13}
н/о н/о +15.3 +14.0 92 +15 +15 996.6 972.1 2
09 17.08 ЮВ 10
{13}
н/о н/о +16.6 +14.8 89 +15 +15 996.5 972.1 0.8
10 17.08 ЮВ 8
{14}
н/о н/о +17.4 +14.5 83 +16 +16 996.7 972.4 0.5
11 17.08 ЮВ 9
{12}
н/о н/о +17.4 +14.9 85 +16 +16 997.0 972.7 0.1
12 17.08 ЮВ 8
{14}
н/о н/о +17.9 +13.4 75 +17 +17 997.1 972.8
13 17.08 ЮВ 9
{11}
н/о н/о +17.8 +13.1 74 +17 +17 997.3 973.0
14 17.08 ЮВ 7
{11}
н/о н/о +17.7 +13.2 75 +17 +17 997.4 973.1
15 17.08 Ю 5
{10}
н/о н/о +17.6 +13.1 75 +17 +17 997.5 973.2
16 17.08 ЮВ 7
{10}
н/о н/о +17.8 +12.5 71 +17 +17 997.8 973.5
17 17.08 Ю 6
{9}
н/о н/о +17.4 +11.2 67 +17 +17 998.1 973.8
18 17.08 Ю 7
{11}
н/о н/о +15.4 +13.1 86 +14 +14 999.1 974.6 +14.0 +18.1 7
19 17.08 ЮВ 5
{9}
н/о н/о +15.4 +12.5 83 +14 +14 999.0 974.5 0.1
20 17.08 ЮВ 6
{10}
н/о н/о +14.7 +11.7 82 +13 +13 999.8 975.2 4
21 17.08 ЮВ 4
{10}
н/о н/о +14.0 +10.2 78 +13 +13 1000.5 975.8
22 17.08 ЮВ 3
{6}
н/о н/о +12.8 +10.9 88 +11 +11 1001.1 976.3
23 17.08 Ю 4
{5}
н/о н/о +12.4 +10.8 90 +10 +10 1001.8 976.9
00 18.08 Ю 4
{10}
н/о н/о +11.9 +10.5 91 +10 +10 1002.2 977.3
01 18.08 Ю 2
{4}
н/о н/о +11.1 +10.2 94 +10 +10 1002.8 977.8
02 18.08 Ю 2
{3}
н/о н/о +11.0 +10.1 94 +10 +10 1002.6 977.6
03 18.08 Ю 1
{4}
н/о н/о +10.7 +9.9 95 +10 +10 1002.7 977.7
04 18.08 Ю 2
{3}
н/о н/о +10.7 +9.9 95 +9 +9 1002.7 977.7
05 18.08 ЮВ 2
{3}
н/о н/о +10.7 +9.9 95 +9 +9 1002.6 977.6 0.3
06 18.08 ЮВ 2
{4}
н/о н/о +11.1 +10.3 95 +10 +10 1002.6 977.6 +10.5 +15.5 5
07 18.08 ЮВ 1
{2}
н/о н/о +11.9 +10.6 92 +12 +12 1002.4 977.5
08 18.08 ЮВ 1
{3}
н/о н/о +14.2 +11.7 85 +15 +15 1002.2 977.5
09 18.08 СЗ 1
{4}
н/о н/о +15.9 +11.9 77 +17 +17 1001.7 977.1
10 18.08 С 3
{8}
н/о н/о +12.3 +10.9 91 +11 +11 1002.0 977.1 2
11 18.08 С 3
{6}
н/о н/о +13.9 +11.1 83 +13 +13 1001.5 976.8
12 18.08 С 3
{8}
н/о н/о +14.9 +10.9 77 +14 +14 1000.8 976.2
13 18.08 Ю 6
{9}
н/о н/о +17.0 +8.9 59 +16 +16 1000.6 976.2 0.1
14 18.08 СЗ 1
{9}
н/о н/о +16.1 +10.0 67 +17 +17 1000.2 975.7
15 18.08 ЮЗ 1
{13}
н/о н/о +14.6 +11.4 81 +15 +15 1000.4 975.8 0.6
16 18.08 В 1
{5}
н/о н/о +14.4 +12.3 87 +15 +15 1000.1 975.4 0.8
17 18.08 В 2
{4}
н/о н/о +13.8 +12.4 91 +13 +13 999.7 975.0 2
18 18.08 Ю 3
{13}
н/о н/о +14.3 +11.5 83 +13 +13 999.6 974.9 +11.1 +17.1 7
19 18.08 ЮВ 6
{14}
н/о н/о +12.7 +9.7 82 +10 +10 1000.5 975.7 2
20 18.08 Ю 4
{7}
н/о н/о +12.5 +10.9 90 +10 +10 1000.8 976.0
21 18.08 Ю 2
{5}
н/о н/о +12.2 +10.9 92 +11 +11 1000.6 975.8
22 18.08 Ю 3
{5}
н/о н/о +12.4 +10.8 90 +11 +11 1000.7 975.9
23 18.08 Ю 3
{4}
н/о н/о +12.3 +10.9 91 +11 +11 1000.8 976.0 0.6
00 19.08 ЮВ 4
{14}
н/о н/о +12.5 +11.4 93 +10 +10 1000.9 976.1
01 19.08 Ю 4
{6}
н/о н/о +12.5 +10.9 90 +10 +10 1001.0 976.2
02 19.08 Ю 5
{6}
н/о н/о +12.3 +11.4 94 +10 +10 1000.8 975.9 0.1
03 19.08 Ю 4
{8}
н/о н/о +12.4 +11.6 95 +10 +10 1000.6 975.8 2
04 19.08 Ю 5
{7}
н/о н/о +12.6 +11.7 94 +10 +10 1000.6 975.8 2
05 19.08 ЮВ 7
{12}
н/о н/о +13.1 +10.8 86 +10 +10 1000.8 976.0 4
06 19.08 ЮВ 8
{12}
н/о н/о +13.2 +11.3 88 +10 +10 1001.5 976.7 +12.0 +14.7 10
07 19.08 ЮВ 7
{11}
н/о н/о +13.2 +10.7 85 +11 +11 1001.8 977.0 0.1
08 19.08 ЮВ 6
{10}
н/о н/о +14.0 +10.8 81 +12 +12 1001.8 977.1
09 19.08 ЮВ 6
{9}
н/о н/о +14.6 +10.8 78 +13 +13 1002.2 977.5
10 19.08 Ю 5
{11}
н/о н/о +15.2 +11.2 77 +14 +14 1002.7 978.1
11 19.08 ЮЗ 4
{11}
н/о н/о +15.6 +10.4 71 +15 +15 1003.2 978.6
12 19.08 Ю 6
{11}
н/о н/о +16.2 +10.1 67 +15 +15 1003.7 979.1
13 19.08 Ю 5
{11}
н/о н/о +16.6 +9.8 64 +16 +16 1004.5 979.9
14 19.08 З 4
{12}
н/о н/о +15.8 +9.9 68 +15 +15 1005.2 980.5
15 19.08 Ю 6
{11}
н/о н/о +16.2 +10.5 69 +15 +15 1005.5 980.9
16 19.08 Ю 5
{10}
н/о н/о +16.1 +9.5 65 +15 +15 1006.3 981.6 0.1
17 19.08 Ю 5
{9}
н/о н/о +15.9 +10.2 69 +15 +15 1006.7 982.0
18 19.08 ЮВ 5
{12}
н/о н/о +15.4 +10.4 72 +14 +14 1007.0 982.3 +12.9 +16.8 0.2
19 19.08 ЮВ 5
{7}
н/о н/о +15.0 +10.0 72 +14 +14 1007.7 982.9
20 19.08 Ю 4
{8}
н/о н/о +13.6 +11.7 88 +12 +12 1008.5 983.6
21 19.08 Ю 5
{6}
н/о н/о +13.3 +11.7 90 +11 +11 1009.1 984.1 0.4
22 19.08 Ю 4
{5}
н/о н/о +12.8 +11.5 92 +11 +11 1009.3 984.3
23 19.08 Ю 3
{5}
н/о н/о +12.7 +11.6 93 +11 +11 1009.5 984.5 0.1
00 20.08 Ю 5
{8}
н/о н/о +12.7 +11.3 91 +10 +10 1009.8 984.8
01 20.08 ЮВ 6
{8}
н/о н/о +13.0 +11.2 89 +11 +11 1010.1 985.1 2
02 20.08 ЮВ 5
{7}
н/о н/о +13.2 +10.9 86 +11 +11 1010.3 985.3 0.3
03 20.08 ЮВ 5
{9}
н/о н/о +13.2 +10.7 85 +11 +11 1010.6 985.6
04 20.08 Ю 4
{9}
н/о н/о +12.3 +11.2 93 +10 +10 1011.0 985.9
05 20.08 Ю 5
{8}
н/о н/о +12.3 +11.0 92 +10 +10 1011.5 986.4
06 20.08 ЮВ 5
{9}
н/о н/о +13.0 +10.5 85 +11 +11 1011.9 986.8 +12.0 +15.4 3
07 20.08 ЮВ 5
{9}
н/о н/о +13.7 +10.9 83 +12 +12 1012.1 987.1
08 20.08 ЮВ 4
{7}
н/о н/о +14.6 +10.4 76 +13 +13 1012.3 987.4
09 20.08 ЮВ 4
{7}
н/о н/о +13.9 +10.7 81 +12 +12 1012.9 987.9 0.1
10 20.08 ЮВ 6
{9}
н/о н/о +14.9 +9.9 72 +13 +13 1013.2 988.3 0.1
11 20.08 ЮЗ 4
{8}
н/о н/о +13.7 +9.9 78 +12 +12 1013.8 988.8 0.8
12 20.08 ЮВ 6
{9}
н/о н/о +13.9 +10.7 81 +12 +12 1014.2 989.2 0.6
13 20.08 ЮВ 6
{9}
н/о н/о +15.5 +10.5 72 +14 +14 1014.2 989.3
14 20.08 З 4
{8}
н/о н/о +15.2 +10.6 74 +14 +14 1014.3 989.4 0.9
15 20.08 ЮВ 5
{7}
н/о н/о +15.8 +10.3 70 +15 +15 1014.6 989.7 1
16 20.08 ЮЗ 4
{8}
н/о н/о +16.2 +8.2 59 +16 +16 1015.2 990.3
17 20.08 Ю 3
{9}
н/о н/о +16.1 +7.6 57 +16 +16 1015.7 990.8
18 20.08 Ю 4
{9}
н/о н/о +15.0 +9.4 69 +14 +14 1016.2 991.2 +13.0 +16.6 3
19 20.08 ЮВ 3
{7}
н/о н/о +14.1 +8.9 71 +13 +13 1017.1 992.0
20 20.08 ЮВ 4
{7}
н/о н/о +13.5 +7.9 69 +12 +12 1017.6 992.4
21 20.08 Ю 2
{7}
н/о н/о +12.5 +9.0 79 +12 +12 1018.2 992.9
22 20.08 ЮВ 2
{5}
н/о н/о +11.7 +9.1 84 +11 +11 1018.6 993.3
23 20.08 Ю 3
{4}
н/о н/о +10.8 +9.2 90 +9 +9 1018.9 993.5
00 21.08 Ю 1
{7}
н/о н/о +10.8 +8.9 88 +10 +10 1019.2 993.8
01 21.08 Ю 3
{5}
н/о н/о +10.6 +8.9 89 +8 +8 1019.7 994.2
02 21.08 Ю 2
{4}
н/о н/о +9.5 +8.4 93 +8 +8 1020.2 994.6
03 21.08 Ю 3
{5}
н/о н/о +9.5 +8.6 94 +7 +7 1020.4 994.8 0.1
04 21.08 ЮВ 2
{6}
н/о н/о +9.6 +7.9 89 +8 +8 1021.1 995.5
05 21.08 Ю 3
{5}
н/о н/о +9.9 +8.3 90 +8 +8 1021.4 995.8
06 21.08 Ю 4
{6}
н/о н/о +9.5 +7.8 89 +7 +7 1021.9 996.3 +8.6 +15.0 0.1
07 21.08 Ю 4
{6}
н/о н/о +10.5 +8.4 87 +8 +8 1022.0 996.5
08 21.08 ЮВ 2
{5}
н/о н/о +13.1 +7.8 70 +12 +12 1022.0 996.7
09 21.08 Ю 2
{4}
н/о н/о +14.2 +7.3 63 +14 +14 1022.0 996.8
10 21.08 СЗ 5
{7}
н/о н/о +14.7 +7.5 62 +13 +13 1022.2 997.0
11 21.08 З 4
{7}
н/о н/о +15.7 +6.2 53 +15 +15 1022.0 996.9
12 21.08 З 3
{7}
н/о н/о +15.9 +4.3 46 +16 +16 1022.2 997.1
13 21.08 З 5
{8}
н/о н/о +16.2 +5.2 48 +15 +15 1022.2 997.2
14 21.08 ЮЗ 4
{8}
н/о н/о +16.2 +5.2 48 +16 +16 1022.3 997.3
15 21.08 З 4
{7}
н/о н/о +16.7 +4.4 44 +16 +16 1022.3 997.3
16 21.08 ЮЗ 3
{7}
н/о н/о +16.6 +5.0 46 +16 +16 1022.5 997.5
17 21.08 ЮЗ 4
{7}
н/о н/о +16.3 +5.3 48 +16 +16 1022.5 997.5
18 21.08 ЮЗ 1
{8}
н/о н/о +15.4 +6.7 56 +16 +16 1022.5 997.4 +9.5 +17.3
19 21.08 Ю 3
{5}
н/о н/о +14.0 +8.2 68 +13 +13 1023.0 997.8
20 21.08 Ю 3
{6}
н/о н/о +12.8 +7.9 72 +11 +11 1023.5 998.1
21 21.08 Ю 3
{4}
н/о н/о +12.2 +8.3 77 +11 +11 1023.6 998.2
22 21.08 Ю 1
{4}
н/о н/о +11.4 +8.4 82 +11 +11 1023.5 998.0
23 21.08 СЗ 1
{3}
н/о н/о +10.7 +7.9 83 +10 +10 1023.2 997.7
00 22.08 ЮЗ 1
{6}
н/о н/о +11.3 +8.7 84 +11 +11 1022.9 997.4
01 22.08 ЮЗ 1
{2}
н/о н/о +11.2 +9.0 86 +11 +11 1022.5 997.0
02 22.08 Ю 1
{2}
н/о н/о +11.0 +9.6 91 +11 +11 1022.1 996.6 0.8
03 22.08 Ю 2
{3}
н/о н/о +10.9 +9.7 92 +9 +9 1021.5 996.0 0.1
04 22.08 Ю 2
{3}
н/о н/о +11.0 +10.1 94 +10 +10 1021.0 995.5
05 22.08 Ю 4
{5}
н/о н/о +11.2 +10.1 93 +9 +9 1020.5 995.1 0.1
06 22.08 Ю 4
{5}
н/о н/о +11.9 +11.0 94 +10 +10 1019.9 994.5 +10.5 +15.4 1
07 22.08 Ю 4
{6}
н/о н/о +12.8 +12.0 95 +11 +11 1019.2 993.9 1
08 22.08 ЮВ 7
{9}
н/о н/о +13.7 +12.1 90 +11 +11 1018.5 993.3 3
09 22.08 ЮВ 8
{12}
н/о н/о +13.6 +12.0 90 +11 +11 1018.5 993.3 4
10 22.08 ЮВ 5
{10}
н/о н/о +13.2 +11.6 90 +11 +11 1017.4 992.2 8
11 22.08 Ю 3
{6}
н/о н/о +13.5 +12.6 94 +12 +12 1016.8 991.7 8
12 22.08 ЮВ 5
{12}
н/о н/о +13.9 +12.0 88 +12 +12 1016.1 991.0 4
13 22.08 ЮВ 7
{10}
н/о н/о +14.1 +11.6 85 +12 +12 1017.3 992.2 0.7
14 22.08 ЮВ 8
{12}
н/о н/о +14.0 +11.5 85 +11 +11 1017.4 992.3 0.1
15 22.08 ЮВ 7
{11}
н/о н/о +14.6 +11.6 82 +13 +13 1017.5 992.4
17 22.08 ЮВ 6
{9}
н/о н/о +14.9 +11.3 79 +13 +13 1017.4 992.4
18 22.08 ЮВ 6
{12}
н/о н/о +13.7 +10.3 80 +12 +12 1017.8 992.7 +11.7 +15.3 30
19 22.08 ЮВ 6
{9}
н/о н/о +13.6 +10.2 80 +11 +11 1018.2 993.0
20 22.08 ЮВ 6
{10}
н/о н/о +13.5 +10.5 82 +11 +11 1018.3 993.1
21 22.08 ЮВ 7
{11}
н/о н/о +13.9 +11.1 83 +12 +12 1017.7 992.6
22 22.08 ЮВ 7
{10}
н/о н/о +14.2 +11.7 85 +12 +12 1017.2 992.1
23 22.08 Ю 5
{10}
н/о н/о +13.3 +11.9 91 +11 +11 1016.5 991.4 0.1

 

Местоположение метеостанции Бигландсфьорд (Норвегия): широта 58.69 долгота 7.80 высота над уровнем моря 207 м.

В архиве по умолчанию представлена погода в Бигландсфьорде за последнюю неделю. Архивные данные за месяц целиком и за предыдущие месяцы, начиная с января 2011 года, Вы можете получить, выбрав интересующий диапазон дат из раскрывающегося списка и нажав кнопку "Ввод!".


*Определитесь, кто Вы:
робот инопланетянин человек

Внимание! Время в таблицах - всемирное. Для получения местного времени необходимо прибавить поправку, которая равна 1 ч.

Смотрите также архив погоды в соседних городах и на ближайших метеорологических станциях:

Погода в Хюннеклейве (Норвегия) (37 км)
Погода в Нелауге (Норвегия) (48 км)
Погода в Консмо-Хойланде (Норвегия) (53 км)
Погода в Твейтсунде (Норвегия) (56 км)
Погода в Кьевике (Норвегия) (57 км)
Погода в Ландвике (Норвегия) (57 км)
Погода в Сирдал-Синнесе (Норвегия) (57 км)
Погода в Валле (Норвегия) (59 км)
Погода на Маяке Torungen (Норвегия) (66 км)
Погода на Маяке Oksoy (Норвегия) (70 км)

Пояснения к столбцам:

Ветер - указаны скорость ветра в м/с - средняя за 10 мин, порывы в срок и между сроками (в фигурных скобках) и направление, откуда дует ветер: С - северный, СВ - северо-восточный, В - восточный, ЮВ - юго-восточный, Ю - южный, ЮЗ - юго-западный, З - западный, СЗ - северо-западный.
Видимость - горизонтальная дальность видимости в метрах или километрах. При видимости от 1 до 10 км при отсутствии осадков обычно наблюдается дымка, при ухудшении видимости до 1 км и менее - туман. В сухую погоду видимость может ухудшаться дымом, пылью или мглою.
Явления - указаны атмосферные явления, наблюдавшиеся в срок или в последний час перед сроком; фигурными скобками обозначены явления, наблюдавшиеся между сроками (за 1-3 часа до срока); квадратными скобками обозначены град или гололедные отложения с указанием их диаметра в мм.
Облачность - указаны через наклонную черту общая и нижняя облачность в баллах и высота нижней границы облаков в метрах; квадратными скобками обозначены формы облаков: Ci - перистые, Cs - перисто-слоистые, Cc - перисто-кучевые, Ac - высококучевые, As - высокослоистые, Sc - слоисто-кучевые, Ns - слоисто-дождевые, Cu - кучевые, Cb - кучево-дождевые. Подробнее классификацию облаков см. в Атласе облаков (PDF).
T - Температура воздуха - температура, измеренная на высоте 2 м над землей.
Td - Температура точки росы - температура, при понижении до которой содержащийся в воздухе водяной пар достигнет насыщения.
f - Относительная влажность воздуха - влажноcть воздуха, измеренная на высоте 2 м над землей.
Te - Эффективная температура - температура, которую ощущает одетый по сезону человек в тени. Характеристика душности погоды. При расчете учитывается влияние влажности воздуха и скорости ветра на теплоощущения человека.
Tes - Эффективная температура на солнце - температура, которую ощущает человек, с поправкой на солнечный нагрев. Характеристика знойности погоды. Зависит от высоты солнца над горизонтом, облачности и скорости ветра. Ночью, в пасмурную погоду, а также при ветре 12 м/с и более поправка равна нулю.
P - Атмосферное давление - приведенное к уровню моря атмосферное давление.
Po - Атмосферное давление - измеренное на уровне метеостанции атмосферное давление.
Tmin - Минимальная температура - минимум температуры воздуха на высоте 2 м над землей.
Tmax - Максимальная температура - максимум температуры воздуха на высоте 2 м над землей.
R - Количество осадков - Количество выпавших осадков за период времени, мм. При наведении курсора мыши на число - период времени, за который выпало указанное количество осадков.
R24 - Количество осадков - Количество выпавших осадков за 24 часа, мм.
S - Снежный покров - Высота снежного покрова, см. При наведении курсора мыши на число - состояние снежного покрова и степень покрытия местности в баллах.